Location: Bletchingley
(51.2333°N, 0.1000°W)
Time: 00:59:32
(UTC+00:00)

SJ-6B - Visible Passes

Search period start: 24 January 2021 00:00
Search period end: 03 February 2021 00:00
Orbit: 510 x 580 km, 97.6° (Epoch: 23 January)

Date Brightness Start Highest point End Pass type
(mag) Time Alt. Az. Time Alt. Az. Time Alt. Az.
26 Jan 5.7 19:46:45 11° NNW 19:46:45 11° NNW 19:46:51 10° NNW visible
27 Jan 5.5 19:40:47 12° N 19:40:47 12° N 19:41:07 10° NNW visible
28 Jan 5.3 19:34:48 14° N 19:34:48 14° N 19:35:23 10° N visible
29 Jan 5.2 19:28:50 15° N 19:28:50 15° N 19:29:38 10° N visible
30 Jan 5.0 19:22:51 17° N 19:22:51 17° N 19:23:53 10° N visible
31 Jan 4.8 19:16:52 19° N 19:16:52 19° N 19:18:07 10° N visible
01 Feb 4.7 19:10:53 20° N 19:10:53 20° N 19:12:21 10° N visible
01 Feb 6.1 20:46:29 11° NW 20:46:29 11° NW 20:46:36 10° NW visible
02 Feb 4.5 19:04:54 21° NNE 19:04:54 21° NNE 19:06:34 10° N visible
02 Feb 5.9 20:40:30 13° NW 20:40:30 13° NW 20:40:59 10° NW visible
